Regional Weather Roundup
Issued by NWS

Home | Current Version | Previous Version | Graphics & Text | Print | Product List | Glossary On
Versions: 1 2 3 4 5 6 7 8 9 10 11 12 13 14 15 16 17 18 19 20 21 22 23 24 25 26 27 28 29 30 31 32 33 34 35 36 37 38 39 40 41 42 43 44 45 46 47 48 49 50
795
ASUS43 KMPX 250301
RWRMN
WEATHER ROUNDUP FOR MINNESOTA
NATIONAL WEATHER SERVICE TWIN CITIES/CHANHASSEN MN
900 PM CST FRI NOV 24 2017


NOTE: "FAIR" INDICATES FEW OR NO CLOUDS BELOW 12,000 FEET WITH NO
SIGNIFICANT WEATHER AND/OR OBSTRUCTIONS TO VISIBILITY. N/A MEANS
CURRENT SKY AND/OR WEATHER CONDITIONS ARE NOT AVAILABLE.

MNZ060>063-068>070-250400-
   Twin Cities Metro

CITY           SKY/WX    TMP DP  RH WIND       PRES   REMARKS
TWIN CITIES    CLEAR     45  35  68 NW17G26   29.70R
ST PAUL        CLEAR     45  34  65 NW21      29.71R
CRYSTAL        CLEAR     43  32  65 NW14      29.69R
LAKEVILLE      CLEAR     43  36  75 W13       29.71R
EDEN PRAIRIE   CLEAR     44  35  70 NW14      29.71R
SOUTH ST PAUL  CLEAR     45  33  61 NW17G28   29.69R
LAKE ELMO      FAIR      43  36  75 NW13G22   29.69R
$$
MNZ001>005-007-008-013>017-022>024-027-028-250400-
   Northwest Minnesota

CITY           SKY/WX    TMP DP  RH WIND       PRES   REMARKS
BEMIDJI        CLEAR     35  30  83 NW17G24   29.65R WCI  24
HALLOCK        CLOUDY    30  25  80 N20G31    29.74R WCI  18
ROSEAU         CLOUDY    32  25  74 NW15G22   29.68R WCI  22
WARROAD        CLOUDY    30  23  74 NW20G29   29.67R WCI  18
CROOKSTON      PTCLDY    36  30  80 NW17      29.73R
FOSSTON        CLOUDY    34  28  80 NW8       29.70R WCI  27
DETROIT LAKES  PTCLDY    36  34  93 NW16      29.73R
MOORHEAD       CLEAR     39  30  70 NW20      29.77R
PARK RAPIDS    PTCLDY    38  32  79 NW17G28   29.67R
$$
MNZ006-009>011-018-025>026-250400-
   North Central Minnesota

CITY           SKY/WX    TMP DP  RH WIND       PRES   REMARKS
BAUDETTE       CLOUDY    31  23  72 NW23G35   29.62R WCI  18
FLAG ISLAND    CLOUDY    27  18  69 NW33      29.65R WCI   9
INTL FALLS     CLOUDY    34  27  75 NW15G25   29.55R WCI  24
WASKISH        CLOUDY    36  30  80 W14G23    29.62R
BIG FORK       CLOUDY    37  30  75 W7        29.57R
LONGVILLE      CLOUDY    39  30  70 W17G26    29.63S
GRAND RAPIDS   CLOUDY    38  32  79 NW14G21   29.62R
CRANE LAKE     CLOUDY    36  28  75 W7        29.53R
ORR            CLOUDY    36  27  69 W10G20    29.51R
COOK           CLOUDY    37  28  70 W13       29.54R
$$
MNZ012-019>021-037-250400-
   Northeast Minnesota

CITY           SKY/WX    TMP DP  RH WIND       PRES   REMARKS
DULUTH         CLOUDY    37  33  85 W17G23    29.56R
ELY            CLOUDY    36  28  75 W9        29.50R
HIBBING        CLOUDY    37  29  72 W10       29.56R
EVELETH        CLOUDY    37  28  70 W9        29.56R
DULUTH HARBOR  CLOUDY    43  36  75 W20G25    29.59R
TWO HARBORS    MOCLDY    43  36  75 W7G16     29.52R
SILVER BAY     CLOUDY    39  32  75 SW3       29.50R
GRAND MARAIS     N/A     40  29  64 W6        29.47R
G MARAIS ARPRT CLOUDY    34  21  60 W12G17    29.43R WCI  25
$$
MNZ029>031-032-039>041-046>048-054>057-064-250400-
   West Central Minnesota

CITY           SKY/WX    TMP DP  RH WIND       PRES   REMARKS
FERGUS FALLS   CLEAR     36  30  80 NW10      29.78R
WHEATON        CLEAR     43  34  70 W16G24    29.80R
MORRIS         CLEAR     39  34  81 W15       29.76R
ALEXANDRIA     CLEAR     39  33  79 NW13      29.74R
ELBOW LAKE     FAIR      37  33  84 NW13G21   29.76R
WADENA         PTCLDY    39  32  75 NW15      29.70R
GLENWOOD       CLEAR     37  34  87 W13       29.74R
APPLETON         N/A     37  32  81 W9        29.78R
BENSON         PTCLDY    39  34  81 NW13      29.78R
ORTONVILLE     CLEAR     43  34  70 NW13G18   29.79R
MADISON        CLEAR     45  36  70 NW15      29.80R
WILLMAR        FAIR      36  32  87 W6        29.77R
$$
MNZ033>034-036-042>043-049>051-058-059-250400-
   Central Minnesota

CITY           SKY/WX    TMP DP  RH WIND       PRES   REMARKS
ST CLOUD       CLEAR     41  33  73 W16       29.69R
SAUK CENTRE    FAIR      37  32  84 W9        29.72R
PAYNESVILLE    PTCLDY    38  34  84 W9        29.74R
AITKIN         PTCLDY    36  30  80 W6        29.63R
PINE RIVER     CLEAR     36  30  80 W9        29.69R
BRAINERD       CLEAR     40  32  73 W10       29.66R
STAPLES        CLEAR     36  32  87 W13G20    29.68R
LONG PRAIRIE   FAIR      37  32  81 SW8       29.71R
LITTLE FALLS   CLEAR     37  28  70 W8        29.70R
LITCHFIELD     CLEAR     43  36  75 NW13G20   29.74R
BUFFALO        CLEAR     41  33  73 W12       29.72R
MAPLE LAKE     CLEAR     43  35  74 W12G18    29.72R
HUTCHINSON     CLEAR     40  35  81 W10       29.75R
$$
MNZ037-044-045-052-053-250400-
   East Central Minnesota

CITY           SKY/WX    TMP DP  RH WIND       PRES   REMARKS
PRINCETON      CLEAR     39  34  81 W9        29.69R
MORA           CLEAR     37  32  81 NW14      29.66R
CAMBRIDGE      CLEAR     43  32  65 W7        29.68R
RUSH CITY      CLEAR     38  32  81 W7        29.67R
MOOSE LAKE     CLOUDY    37  32  81 W9        29.61R
HINCKLEY       FAIR      39  34  81 NW7       29.64R
CLOQUET        CLOUDY    37  32  81 W12G20    29.59R
MCGREGOR       MOCLDY    37  32  81 W7        29.63R
$$
MNZ071>073-080-081-089-090-097-098-250400-
   Southwest Minnesota

CITY           SKY/WX    TMP DP  RH WIND       PRES   REMARKS
MONTEVIDEO     PTCLDY    41  34  75 NW9       29.79R
GRANITE FALLS  CLEAR     39  34  80 W9        29.81R
CANBY          CLEAR     46  34  63 NW18G25   29.82R
MARSHALL       CLEAR     41  33  73 W13       29.81R
REDWOOD FALLS  PTCLDY    42  32  67 W12       29.78R
OLIVIA         PTCLDY    41  32  70 W8        29.76R
PIPESTONE      CLEAR     39  32  75 NW10      29.83R
WINDOM         CLEAR     39  25  56 W9        29.81R
WORTHINGTON    CLEAR     39  32  76 W12       29.83R
JACKSON        CLEAR     43  32  65 NW15G21   29.81R
SLAYTON        CLEAR     38  32  79 W9        29.82R
$$
MNZ065>067-074>077-082>085-091>093-250400-
   South Central Minnesota

CITY           SKY/WX    TMP DP  RH WIND       PRES   REMARKS
MANKATO        CLEAR     43  34  70 NW15G23   29.76R
NEW ULM        CLEAR     45  32  61 CALM      29.77R
ST JAMES       CLEAR     43  34  70 W14G20    29.80R
FAIRMONT       CLEAR     44  34  67 NW17      29.80R
GLENCOE        CLEAR     42  35  77 W10       29.74R
FARIBAULT      CLEAR     43  36  75 W16G22    29.73R
OWATONNA       CLEAR     41  36  81 W12       29.74R
WASECA         CLEAR     41  34  75 W12       29.76R
ALBERT LEA     CLEAR     43  34  70 W9        29.75R
$$
MNZ078>079-086>088-094>096-250400-
   Southeast Minnesota

CITY           SKY/WX    TMP DP  RH WIND       PRES   REMARKS
ROCHESTER      CLEAR     41  37  86 NW20      29.69R
RED WING       CLEAR     43  36  75 NW7       29.67R
STANTON        CLEAR     42  36  78 NW13      29.70R
DODGE CENTER   CLEAR     43  36  75 W13       29.70R
WINONA         CLEAR     48  41  76 NW13      29.66R
PRESTON        CLEAR     42  36  79 NW15G22   29.68R
$$
ABBREVIATIONS USED IN REMARKS
   TC - TEMPERATURES IN CELSIUS
  WCI - WIND CHILL INDEX
   HX - HEAT INDEX
  VSB - VISIBILITY
$$




USA.gov is the U.S. government's official web portal to all federal, state and local government web resources and services.